This demonstration page uses our WeatherBlox Daily Observations layout. Learn more.

Left ArrowRight Arrow

Hourly Observations for August 22, 2021

Temp ( °F °C ) Dew Point ( °F °C ) Humidity (%) Winds ( mph kmh ) Pressure ( in mb ) Visibility ( mi km ) Precip ( " mm )
12:54 am 00:54 Clear 58 14.4 55 12.8 90 90 Calm 30.04 1017 10 16 0.00 0.00
1:54 am 01:54 Partly Cloudy 62 16.7 58 14.4 86 86 SW 3 6 30.04 1017 10 16 0.00 0.00
2:54 am 02:54 Mostly Clear 61 16.1 57 13.9 87 87 Calm 30.04 1017 10 16 0.00 0.00
3:54 am 03:54 Cloudy 61 16.1 57 13.9 87 87 Calm 30.02 1017 10 16 0.00 0.00
4:54 am 04:54 Mostly Clear 62 16.7 57 13.9 84 84 Calm 30.01 1016 10 16 0.00 0.00
5:54 am 05:54 Mostly Clear 62 16.7 55 12.8 78 78 E 3 6 30.01 1016 10 16 0.00 0.00
6:54 am 06:54 Sunny 61 16.1 56 13.3 84 84 ESE 3 6 30.01 1016 10 16 0.00 0.00
7:54 am 07:54 Sunny 65 18.3 58 14.4 78 78 SE 6 9 30.01 1016 10 16 0.00 0.00
8:54 am 08:54 Partly Cloudy 70 21.1 57 13.9 64 64 SE 10 17 30.01 1016 10 16 0.00 0.00
9:54 am 09:54 Sunny 73 22.8 58 14.4 59 59 SSE 14 22 30.00 1016 10 16 0.00 0.00
10:54 am 10:54 Mostly Sunny 77 25 59 15 54 54 SSE 22 35 29.97 1015 10 16 0.00 0.00
11:54 am 11:54 Sunny 80 26.7 61 16.1 52 52 SE 15 24 29.96 1015 10 16 0.00 0.00
12:54 pm 12:54 Sunny 84 28.9 63 17.2 49 49 SSE 15 24 29.93 1014 10 16 0.00 0.00
1:54 pm 13:54 Sunny 86 30 65 18.3 49 49 SE 18 30 29.90 1013 10 16 0.00 0.00
2:54 pm 14:54 Sunny 88 31.1 67 19.4 50 50 SE 15 24 29.89 1012 10 16 0.00 0.00
3:54 pm 15:54 Sunny 90 32.2 69 20.6 50 50 SSE 21 33 29.85 1011 10 16 0.00 0.00
4:54 pm 16:54 Sunny 90 32.2 69 20.6 50 50 S 21 33 29.82 1010 10 16 0.00 0.00
5:54 pm 17:54 Sunny 89 31.7 70 21.1 53 53 SSE 18 30 29.81 1010 10 16 0.00 0.00
6:54 pm 18:54 Sunny 88 31.1 71 21.7 57 57 SSE 21 33 29.80 1009 10 16 0.00 0.00
7:54 pm 19:54 Sunny 85 29.4 72 22.2 65 65 SSE 12 19 29.80 1009 10 16 0.00 0.00
8:54 pm 20:54 Clear 84 28.9 72 22.2 67 67 SSE 12 19 29.81 1010 10 16 0.00 0.00
9:54 pm 21:54 Clear 83 28.3 73 22.8 72 72 SSE 14 22 29.81 1010 10 16 0.00 0.00
10:54 pm 22:54 Clear 82 27.8 73 22.8 74 74 SSE 17 28 29.78 1008 10 16 0.00 0.00
11:54 pm 23:54 Clear 82 27.8 74 23.3 77 77 S 15 24 29.77 1008 10 16 0.00 0.00

Powered by AerisWeather